Location: Eschertshofen
(49.3064°N, 11.5756°E)
Time: 13:34:00
(UTC+00:00)

Cosmos 1833 Rocket - Pass Details

Date: 18 September 2020
Orbit: 831 x 841 km, 71.0° (Epoch: 21 October)

Event Time Altitude Azimuth Distance (km) Brightness Sun altitude
Rises 19:59:35 0° 333° (NNW) 3,408 6.9 -25.2°
Reaches altitude 10° 20:02:07 10° 339° (NNW) 2,470 5.9 -25.5°
Maximum altitude 20:07:38 51° 55° (NE) 1,049 3.0 -26.2°
Enters shadow 20:07:41 51° 56° (NE) 1,049 3.0 -26.2°
